Location: Akdamlar
(36.8729°N, 30.5187°E)
Time: 19:40:25
(UTC+00:00)

ATLAS 2AS CENTAUR R/B - Pass Details

Date: 18 September 2020
Orbit: 939 x 1273 km, 63.7° (Epoch: 19 October)

Event Time Altitude Azimuth Distance (km) Brightness Sun altitude
Rises 17:21:44 0° 172° (S) 4,137 5.5 -16.9°
Reaches altitude 10° 17:25:00 10° 160° (SSE) 3,209 4.9 -17.5°
Enters shadow 17:29:07 23° 130° (SE) 2,386 4.0 -18.3°
Exits shadow 17:37:33 - 55° (NE) 3,313 4.9 -19.9°
Sets 17:40:41 0° 44° (NE) 4,225 5.6 -20.5°
